Weather History for KMRC - November, 2013

Change the Weather History Date:

Monday, November 25, 2013

  Actual Average (KBNA) Record (KBNA)
Temperature  
Mean Temperature 32 °F 46 °F  
Max Temperature 41 °F 56 °F 74 °F (1958)
Min Temperature 24 °F 36 °F -1 °F (1950)
Degree Days  
Heating Degree Days 32    
Month to date heating degree days  
Since 1 July heating degree days  
Cooling Degree Days 0    
Month to date cooling degree days  
Year to date cooling degree days  
Moisture  
Dew Point 23 °F    
Average Humidity 70    
Maximum Humidity 100    
Minimum Humidity 39    
Precipitation  
Precipitation 0.00 in 0.16 in 3.01 in (1919)
Month to date precipitation 3.47  
Year to date precipitation 42.17  
Snow  
Snow 0.00 in 0.00 in 3.00 in (1900)
Month to date snowfall 0.0  
Since 1 July snowfall T  
Since 1 September snowfall T  
Snow Depth -    
Sea Level Pressure  
Sea Level Pressure 30.29 in    
Wind  
Wind Speed 4 mph (ESE)    
Max Wind Speed 8 mph    
Max Gust Speed -    
Visibility 10 miles    
Events      
T = Trace of Precipitation, MM = Missing Value Source: NWS Daily Summary

Daily Weather History Graph

Daily Weather History Graph

Search for Another Location

Airport or City:

Trip Planner

Search our weather history database for the weather conditions in past years. The results will help you decide how hot, cold, wet, or windy it might be!

Date:

Astronomy

Nov. 25, 2013 Rise Set
Actual Time 6:34 AM CST 4:37 PM CST
Civil Twilight 6:06 AM CST 5:04 PM CST
Nautical Twilight 5:35 AM CST 5:35 PM CST
Astronomical Twilight 5:04 AM CST 6:06 PM CST
Moon 11:51 PM CST (11/25) 11:59 AM CST (11/25)
Length of Visible Light 10h 58m
Length of Day
10h 02m
Waning Gibbous, 51% of the Moon is Illuminated
Nov 25
Waning Gibbous
Nov 25
Last Quarter
Dec 2
New
Dec 9
First Quarter
Dec 17
Full

Hourly Weather History & Observations

Time (CST) Temp. Windchill Dew Point Humidity Pressure Visibility Wind Dir Wind Speed Gust Speed Precip Events Conditions
12:15 AM 24.8 °F 19.1 °F 17.6 °F 74% 30.43 in 10.0 mi ENE 4.6 mph - N/A   Clear
12:35 AM 26.6 °F 19.1 °F 17.6 °F 69% 30.42 in 10.0 mi East 6.9 mph - N/A   Clear
12:55 AM 26.6 °F 20.0 °F 15.8 °F 64% 30.40 in 10.0 mi East 5.8 mph - N/A   Clear
1:15 AM 26.6 °F 20.0 °F 15.8 °F 64% 30.39 in 10.0 mi East 5.8 mph - N/A   Clear
1:35 AM 26.6 °F 20.0 °F 15.8 °F 64% 30.39 in 10.0 mi East 5.8 mph - N/A   Clear
1:55 AM 26.6 °F 18.2 °F 14.0 °F 59% 30.39 in 10.0 mi East 8.1 mph - N/A   Clear
2:15 AM 26.6 °F 18.2 °F 14.0 °F 59% 30.38 in 10.0 mi East 8.1 mph - N/A   Clear
2:35 AM 28.4 °F 22.2 °F 12.2 °F 51% 30.38 in 10.0 mi East 5.8 mph - N/A   Clear
2:55 AM 28.4 °F 22.2 °F 12.2 °F 51% 30.38 in 10.0 mi East 5.8 mph - N/A   Partly Cloudy
3:15 AM 28.4 °F - 14.0 °F 55% 30.37 in 10.0 mi Calm Calm - N/A   Partly Cloudy
3:35 AM 28.4 °F 24.6 °F 14.0 °F 55% 30.37 in 10.0 mi East 3.5 mph - N/A   Clear
3:55 AM 28.4 °F - 14.0 °F 55% 30.37 in 10.0 mi Calm Calm - N/A   Clear
4:15 AM 28.4 °F 24.6 °F 14.0 °F 55% 30.37 in 10.0 mi NE 3.5 mph - N/A   Mostly Cloudy
4:35 AM 28.4 °F 24.6 °F 15.8 °F 59% 30.37 in 10.0 mi ENE 3.5 mph - N/A   Partly Cloudy
4:55 AM 28.4 °F - 15.8 °F 59% 30.38 in 10.0 mi Calm Calm - N/A   Clear
5:15 AM 28.4 °F 23.3 °F 15.8 °F 59% 30.37 in 10.0 mi ENE 4.6 mph - N/A   Clear
5:35 AM 28.4 °F 23.3 °F 17.6 °F 64% 30.36 in 10.0 mi East 4.6 mph - N/A   Clear
5:55 AM 28.4 °F 24.6 °F 17.6 °F 64% 30.37 in 10.0 mi East 3.5 mph - N/A   Clear
6:15 AM 28.4 °F - 17.6 °F 64% 30.36 in 10.0 mi Calm Calm - N/A   Clear
6:35 AM 28.4 °F - 17.6 °F 64% 30.37 in 10.0 mi Calm Calm - N/A   Scattered Clouds
6:55 AM 28.4 °F - 19.4 °F 69% 30.36 in 10.0 mi Calm Calm - N/A   Scattered Clouds
7:15 AM 28.4 °F 23.3 °F 17.6 °F 64% 30.35 in 10.0 mi SE 4.6 mph - N/A   Mostly Cloudy
7:35 AM 30.2 °F - 19.4 °F 64% 30.35 in 10.0 mi Calm Calm - N/A   Overcast
7:55 AM 32.0 °F 28.7 °F 17.6 °F 55% 30.34 in 10.0 mi SE 3.5 mph - N/A   Mostly Cloudy
8:15 AM 33.8 °F - 19.4 °F 56% 30.35 in 10.0 mi Calm Calm - N/A   Mostly Cloudy
8:35 AM 35.6 °F 31.7 °F 17.6 °F 48% 30.33 in 10.0 mi ESE 4.6 mph - N/A   Overcast
8:55 AM 35.6 °F 32.8 °F 19.4 °F 52% 30.34 in 10.0 mi South 3.5 mph - N/A   Overcast
9:15 AM 37.4 °F 32.8 °F 17.6 °F 45% 30.35 in 10.0 mi South 5.8 mph - N/A   Overcast
9:35 AM 37.4 °F 32.8 °F 17.6 °F 45% 30.35 in 10.0 mi South 5.8 mph - N/A   Overcast
9:55 AM 37.4 °F 32.8 °F 17.6 °F 45% 30.33 in 10.0 mi South 5.8 mph - N/A   Mostly Cloudy
10:15 AM 39.2 °F 35.9 °F 19.4 °F 45% 30.34 in 10.0 mi South 4.6 mph - N/A   Mostly Cloudy
10:35 AM 39.2 °F - 19.4 °F 45% 30.34 in 10.0 mi Calm Calm - N/A   Overcast
10:55 AM 39.2 °F 34.2 °F 17.6 °F 42% 30.33 in 10.0 mi SSE 6.9 mph - N/A   Overcast
11:15 AM 39.2 °F 33.6 °F 17.6 °F 42% 30.32 in 10.0 mi South 8.1 mph - N/A   Mostly Cloudy
11:35 AM 39.2 °F 34.2 °F 17.6 °F 42% 30.30 in 10.0 mi South 6.9 mph - N/A   Partly Cloudy
11:55 AM 39.2 °F 34.2 °F 17.6 °F 42% 30.29 in 10.0 mi SSE 6.9 mph - N/A   Clear
12:15 PM 41.0 °F 39.0 °F 17.6 °F 39% 30.28 in 10.0 mi South 3.5 mph - N/A   Partly Cloudy
12:35 PM 41.0 °F 37.1 °F 17.6 °F 39% 30.28 in 10.0 mi SSE 5.8 mph - N/A   Partly Cloudy
12:55 PM 41.0 °F 39.0 °F 17.6 °F 39% 30.28 in 10.0 mi SSE 3.5 mph - N/A   Clear
1:15 PM 41.0 °F 39.0 °F 19.4 °F 42% 30.27 in 10.0 mi SSE 3.5 mph - N/A   Clear
1:35 PM 39.2 °F 35.9 °F 21.2 °F 49% 30.29 in 10.0 mi SSW 4.6 mph - N/A   Partly Cloudy
1:55 PM 39.2 °F - 21.2 °F 49% 30.28 in 10.0 mi Calm Calm - N/A   Partly Cloudy
2:15 PM 39.2 °F 35.9 °F 23.0 °F 52% 30.27 in 10.0 mi SE 4.6 mph - N/A   Partly Cloudy
2:35 PM 37.4 °F - 24.8 °F 60% 30.25 in 10.0 mi Calm Calm - N/A   Partly Cloudy
2:55 PM 37.4 °F 32.8 °F 28.4 °F 70% 30.25 in 10.0 mi ENE 5.8 mph - N/A   Mostly Cloudy
3:15 PM 37.4 °F 32.1 °F 32.0 °F 81% 30.23 in 10.0 mi ENE 6.9 mph - N/A   Unknown
3:35 PM 35.6 °F 31.7 °F 32.0 °F 87% 30.23 in 10.0 mi East 4.6 mph - N/A   Overcast
3:55 PM 35.6 °F - 35.6 °F 100% 30.24 in 10.0 mi Calm Calm - N/A   Overcast
4:15 PM 35.6 °F 32.8 °F 35.6 °F 100% 30.23 in 9.0 mi ESE 3.5 mph - N/A   Overcast
4:35 PM 35.6 °F 32.8 °F 35.6 °F 100% 30.23 in 8.0 mi ESE 3.5 mph - N/A   Overcast
4:55 PM 33.8 °F 29.6 °F 33.8 °F 100% 30.22 in 7.0 mi ENE 4.6 mph - N/A   Overcast
5:15 PM 33.8 °F 30.8 °F 33.8 °F 100% 30.24 in 8.0 mi ENE 3.5 mph - N/A   Unknown
5:35 PM 33.8 °F - 33.8 °F 100% 30.26 in 8.0 mi Calm Calm - N/A   Overcast
5:55 PM 33.8 °F 29.6 °F 33.8 °F 100% 30.26 in 10.0 mi NE 4.6 mph - N/A   Overcast
6:15 PM 33.8 °F 29.6 °F 33.8 °F 100% 30.25 in 10.0 mi East 4.6 mph - N/A   Overcast
6:35 PM 33.8 °F - 33.8 °F 100% 30.24 in 10.0 mi Calm Calm - N/A   Overcast
6:55 PM 33.8 °F 30.8 °F 33.8 °F 100% 30.24 in 10.0 mi ENE 3.5 mph - N/A   Unknown
7:15 PM 33.8 °F - 33.8 °F 100% 30.23 in 10.0 mi Calm Calm - N/A   Overcast
7:35 PM 33.8 °F 29.6 °F 33.8 °F 100% 30.21 in 10.0 mi East 4.6 mph - N/A   Overcast
7:55 PM 33.8 °F 30.8 °F 33.8 °F 100% 30.20 in 10.0 mi East 3.5 mph - N/A   Overcast
8:15 PM 33.8 °F 29.6 °F 33.8 °F 100% 30.19 in 10.0 mi East 4.6 mph - N/A   Overcast
8:35 PM 33.8 °F 29.6 °F 33.8 °F 100% 30.19 in 10.0 mi East 4.6 mph - N/A   Overcast
8:55 PM 33.8 °F 30.8 °F 33.8 °F 100% 30.18 in 10.0 mi ENE 3.5 mph - N/A   Overcast
9:15 PM 33.8 °F 29.6 °F 33.8 °F 100% 30.16 in 10.0 mi East 4.6 mph - N/A   Overcast
9:35 PM 33.8 °F 29.6 °F 33.8 °F 100% 30.14 in 10.0 mi East 4.6 mph - N/A   Overcast
9:55 PM 33.8 °F 30.8 °F 33.8 °F 100% 30.14 in 10.0 mi East 3.5 mph - N/A   Mostly Cloudy
10:15 PM 33.8 °F - 33.8 °F 100% 30.15 in 10.0 mi Calm Calm - N/A   Mostly Cloudy
10:35 PM 35.6 °F 32.8 °F 35.6 °F 100% 30.16 in 10.0 mi NE 3.5 mph - N/A   Mostly Cloudy
10:55 PM 35.6 °F - 35.6 °F 100% 30.16 in 6.0 mi Calm Calm - N/A   Overcast
11:35 PM - - - N/A% 30.16 in 6.0 mi Calm Calm - N/A   Overcast
11:55 PM - - - N/A% 30.15 in 6.0 mi Calm Calm - N/A   Overcast